Probability
0 0 0 0 0 0 0 0 0 0 0 0 0 0 0 0 0 0 0 0 0 0 0 0 0 0 0 0 0 0 0 0 0 0 0 0 0 0 0 0 0 0 0 0
0 0 0 0 0 0 0 0 0 0 0 0 0 0 0 0 0 0 0 0 0 0 0 0 0 0 0 0 0 0 0 0 0 0 0 0 0 0 0 0 0 0 0 0
0 0 0 0 0 0 0 0 0 0 0 0 0 0 0 0 0 0 0 0 0 0 0 0 0 0 0 0 0 0 0 0 0 0 0 0 0 0 0 0 0 0 0 0
0 0 0 0 0 0 0 0 0 0 0 0 0 0 0 0 0 0 0 0 0 0 0 0 0 0 0 0 0 0 0 0 0 0 0 0 0 0 0 0 0 0 0 0
0 0 0 0 0 0 0 0 0 0 0 0 0 0 0 0 0 0 0 0 0 0 0 0 0 0 0 0 0 0 0 0 0 0 0 0 0 0 0 0 0 0 0 0
0 0 0 0 0 0 0 0 0 0 0 0 0 0 0 0 0 0 0 0 0 0 0 0 0 0 0 0 0 0 0 0 0 0 0 0 0 0 0 0 0 0 0 0
0 0 0 0 0 0 0 0 0 0 0 0 0 0 0 0 0 0 0 0 0 0 0 0 0 0 0 0 0 0 0 0 0 0 0 0 0 0 0 0 0 0 0 0
0 0 0 0 0 0 0 0 0 0 0 0 0 0 0 0 0 0 0 0 0 0 0 0 0 0 0 0 0 0 0 0 0 0 0 0 0 0 0 0 0 0 0 0
0 0 0 0 0 0 0 0 0 0 0 0 0 0 0 0 0 0 0 0 0 0 0 0 0 0 0 0 0 0 0 0 0 0 0 0 0 0 0 0 0 0 0 0
0 0 0 0 0 0 0 0 0 0 0 0 0 0 0 0 0 0 0 0 0 0 0 0 0 0 0 0 0 0 0 0 0 0 0 0 0 0 0 0 0 0 0 0
0 0 0 0 0 0 0 0 0 0 0 0 0 0 0 0 0 0 0 0 0 0 0 0 0 0 0 0 0 0 0 0 0 0 0 0 0 0 0 0 0 0 0 0
0 0 0 0 0 0 0 0 0 0 0 0 0 0 0 0 0 0 0 0 0 0 0 0 0 0 0 0 0 0 0 0 0 0 0 0 0 0 0 0 0 0 0 0
0 0 0 0 0 0 0 0 0 0 0 0 0 0 0 0 0 0 0 0 0 0 0 0 0 0 0 0 0 0 0 0 0 0 0 0 0 0 0 0 0 0 0 0
0 0 0 0 0 0 0 0 0 0 0 0 0 0 0 0 0 0 0 0 0 0 0 0 0 0 0 0 0 0 0 0 0 0 0 0 0 0 0 0 0 0 0 0
0 0 0 0 0 0 0 0 0 0 0 0 0 0 0 0 0 0 0 0 0 0 0 0 0 0 0 0 0 0 0 0 0 0 0 0 0 0 0 0 0 0 0 0
0 0 0 0 0 0 0 0 0 0 0 0 0 0 0 0 0 0 0 0 0 0 0 0 0 0 0 0 0 0 0 0 0 0 0 0 0 0 0 0 0 0 0 0
0 0 0 0 0 0 0 0 0 0 0 0 0 0 0 0 0 0 0 0 0 0 0 0 0 0 0 0 0 0 0 0 0 0 0 0 0 0 0 0 0 0 0 0
0 0 0 0 0 0 0 0 0 0 0 0 0 0 0 0 0 0 0 0 0 0 0 0 0 0 0 0 0 0 0 0 0 0 0 0 0 0 0 0 0 0 0 0
0 0 0 0 0 0 0 0 0 0 0 0 0 0 0 0 0 0 0 0 0 0 0 0 0 0 0 0 0 0 0 0 0 0 0 0 0 0 0 0 0 0 0 0
0 0 0 0 0 0 0 0 0 0 0 0 0 0 0 0 0 0 0 0 0 0 0 0 0 0 0 0 0 0 0 0 0 0 0 0 0 0 0 0 0 0 0 0
0 0 0 0 0 0 0 0 0 0 0 0 0 0 0 0 0 0 0 0 0 0 0 0 0 0 0 0 0 0 0 0 0 0 0 0 0 0 0 0 0 0 0 0
0 0 0 0 0 0 0 0 0 0 0 0 0 0 0 0 0 0 0 0 0 0 0 0 0 0 0 0 0 0 0 0 0 0 0 0 0 0 0 0 0 0 0 0
0 0 0 0 0 0 0 0 0 0 0 0 0 0 0 0 0 0 0 0 0 0 0 0 0 0 0 0 0 0 0 0 0 0 0 0 0 0 0 0 0 0 0 0
0 0 0 0 0 0 0 0 0 0 0 0 0 0 0 0 0 0 0 0 0 0 0 0 0 0 0 0 0 0 0 0 0 0 0 0 0 0 0 0 0 0 0 0
0 0 0 0 0 0 0 0 0 0 0 0 0 0 0 0 0 0 0 0 0 0 0 0 0 0 0 0 0 0 0 0 0 0 0 0 0 0 0 0 0 0 0 0
0 0 0 0 0 0 0 0 0 0 0 0 0 0 0 0 0 0 0 0 0 0 0 0 0 0 0 0 0 0 0 0 0 0 0 0 0 0 0 0 0 0 0 0
0 0 0 0 0 0 0 0 0 0 0 0 0 0 0 0 0 0 0 0 0 0 0 0 0 0 0 0 0 0 0 0 0 0 0 0 0 0 0 0 0 0 0 0
Wind_Speed
1 1 3 5 7 10 10 7 7 6 9 10 8 5 4 3 5 6 6 6 6 5 4 4 3 3 3 3 3 4 4 5 6 7 7 7 8 8 8 8 7 7 6 6
5 4 5 7 8 10 10 9 10 11 10 5 4 3 4 4 5 6 7 6 6 5 4 4 3 3 2 3 3 3 4 5 5 6 6 7 7 8 8 8 8 8 7 7
5 4 5 9 9 11 7 8 7 7 5 4 4 4 5 4 5 6 6 6 6 5 4 3 3 2 2 3 2 3 4 4 4 5 5 6 7 7 7 7 7 7 7 7
3 5 7 3 4 4 6 6 7 9 8 6 6 6 5 5 5 5 5 6 6 5 4 4 2 2 2 2 2 3 3 3 3 4 5 5 6 7 7 6 6 6 7 7
4 5 4 3 5 5 5 3 3 5 5 4 3 5 3 2 5 5 4 5 5 5 4 4 3 2 3 2 2 2 2 3 3 3 4 5 6 6 6 6 6 6 6 6
5 5 4 4 5 3 4 4 2 3 3 1 3 3 3 3 2 4 4 4 5 5 5 5 4 3 4 3 3 3 2 2 2 3 4 4 5 5 5 4 5 5 5 5
7 6 3 4 5 5 6 3 3 1 2 2 4 4 4 1 1 3 4 5 5 5 5 5 4 4 5 4 3 2 2 2 3 3 3 4 4 4 4 4 4 4 4 4
7 7 4 6 7 6 3 3 1 2 2 3 4 3 2 2 2 2 4 5 6 6 5 5 5 6 6 5 3 3 3 4 4 3 3 3 3 4 4 4 4 4 3 3
6 1 5 3 2 2 4 4 4 4 3 3 3 3 2 2 2 2 3 4 5 6 6 6 6 6 7 5 4 5 5 5 5 4 3 3 4 4 3 3 3 3 3 3
6 5 4 3 2 1 3 4 4 4 3 2 2 2 1 1 1 1 2 3 4 5 6 6 6 7 7 6 5 6 6 6 5 5 5 4 3 3 3 3 3 3 3 3
7 4 6 5 2 1 1 1 1 0 0 1 1 1 2 1 1 1 1 2 3 4 5 6 6 6 6 6 7 8 8 7 6 6 5 5 4 4 4 4 3 4 4 3
6 7 7 7 5 1 1 1 1 2 3 3 2 2 2 2 2 2 2 1 2 3 4 6 5 6 5 6 7 8 8 7 6 5 5 5 5 5 7 7 5 7 7 7
2 5 4 6 4 3 3 3 4 4 5 5 5 4 3 3 3 3 3 3 3 3 4 4 4 5 5 5 6 8 9 8 6 6 6 6 6 6 6 7 11 11 10 10
6 7 7 7 5 4 5 5 6 7 7 6 6 6 5 5 5 5 5 5 4 4 4 4 5 5 6 5 6 8 9 8 7 7 7 7 7 7 6 6 6 6 9 12
9 6 6 8 8 7 6 7 7 7 7 8 7 7 7 7 7 7 7 6 5 5 6 6 6 7 8 7 7 8 7 6 6 7 7 8 7 7 7 8 8 7 6 7
11 10 10 11 10 9 8 7 7 7 7 7 7 7 7 7 7 7 8 8 7 7 8 8 8 9 9 8 8 7 6 7 8 7 8 8 8 8 8 8 8 8 8 7
16 14 14 13 11 10 8 7 7 7 7 7 7 7 7 7 8 9 9 8 8 8 9 10 11 11 10 9 9 6 6 6 7 8 8 8 8 9 9 9 9 9 8 8
11 11 12 13 12 11 10 8 7 7 7 6 6 7 8 8 8 8 8 8 8 9 11 12 12 12 10 11 9 7 7 7 6 6 7 7 8 9 9 9 10 11 9 8
13 13 13 12 11 10 9 8 8 7 6 6 6 7 8 8 8 7 8 9 10 10 11 13 14 12 12 12 12 7 7 8 7 7 7 7 8 9 9 10 10 10 10 9
15 14 14 13 11 10 9 8 7 7 6 5 6 7 7 7 7 7 7 8 8 8 10 12 12 11 12 12 13 8 8 8 8 8 7 7 8 8 9 9 10 10 10 10
15 15 13 12 11 9 8 8 7 6 6 5 5 6 6 6 6 6 6 6 8 10 10 10 9 11 11 12 11 9 9 9 9 8 8 8 8 9 9 9 10 10 10 10
14 13 12 11 10 9 7 6 6 6 5 5 5 4 4 5 5 5 6 5 6 9 8 7 9 13 15 13 9 9 10 10 9 9 9 9 9 9 9 10 10 10 10 10
12 11 11 10 9 8 8 6 6 5 4 4 3 3 3 3 3 3 4 5 6 9 7 7 11 15 16 10 9 9 10 11 10 10 10 10 10 10 10 11 10 10 10 10
11 10 10 9 8 8 8 6 5 4 4 3 2 1 0 1 1 2 3 4 6 8 6 7 11 14 13 8 8 9 9 10 10 10 10 10 10 10 10 10 10 10 11 12
11 10 10 9 8 6 6 6 6 5 4 3 3 2 2 1 2 3 4 5 6 7 6 8 10 12 9 8 9 9 9 9 10 10 10 10 10 11 11 11 11 11 11 11
9 8 7 7 6 5 5 5 4 4 4 3 2 2 2 2 3 4 4 5 7 7 7 6 7 8 8 8 9 9 9 9 9 9 10 10 11 11 10 11 15 12 11 11
8 7 5 5 5 5 5 5 4 4 4 4 3 3 3 3 4 4 5 5 5 6 6 6 7 7 7 8 8 9 9 9 9 9 10 10 9 10 10 13 11 11 11 11
Wind_Direction
237 152 216 225 205 203 225 252 271 288 292 301 317 318 306 263 229 221 224 228 234 247 265 276 285 291 303 319 327 331 331 337 345 346 350 351 354 356 358 355 354 358 1 360
202 200 227 240 229 218 231 247 257 276 286 294 309 286 270 246 224 225 226 227 230 237 251 267 279 292 300 307 321 324 331 342 347 343 352 353 357 358 360 359 359 4 4 3
209 178 230 240 221 208 214 222 243 267 296 325 293 289 284 270 233 233 228 224 226 231 238 256 280 300 305 309 313 315 332 342 345 348 352 354 358 359 359 2 6 4 5 4
229 206 232 93 101 195 223 241 239 261 284 290 289 297 284 266 250 235 221 218 217 222 222 231 234 241 270 272 279 308 330 339 346 345 349 352 358 359 357 360 5 1 3 5
235 230 236 180 179 190 211 214 217 254 283 294 291 263 226 210 233 237 217 210 209 215 214 222 225 236 247 253 263 284 311 324 338 339 342 346 353 356 358 355 358 1 3 1
224 239 224 135 126 173 227 196 135 245 294 282 246 268 70 75 190 210 201 200 201 203 216 222 216 220 246 262 268 276 287 300 317 327 327 332 339 343 350 350 350 352 3 359
228 240 239 113 138 183 220 99 86 267 285 241 253 345 33 26 224 206 200 200 203 209 220 227 220 224 244 260 271 274 264 275 283 291 304 316 320 325 329 338 344 349 356 4
208 222 202 130 171 208 26 38 318 288 286 268 277 304 296 278 249 211 205 203 209 217 222 220 220 229 244 255 262 242 237 250 261 272 287 295 298 307 318 324 324 336 346 3
213 204 74 150 210 0 327 291 296 294 294 278 272 279 282 271 250 225 219 211 212 223 230 225 219 230 248 247 234 228 230 242 251 255 260 274 283 290 297 305 314 327 336 343
221 216 181 170 196 277 283 279 293 291 283 269 271 310 321 305 273 234 229 222 221 226 233 236 231 228 243 248 233 234 238 243 245 249 251 253 261 274 283 295 304 314 325 327
224 180 173 184 174 327 309 281 278 339 31 326 321 3 8 3 358 329 280 243 235 242 251 256 249 241 242 243 240 243 246 245 247 249 257 262 253 256 268 273 290 293 306 308
216 183 185 162 143 147 151 100 79 94 86 66 47 33 28 27 19 0 340 308 273 268 269 271 266 260 255 246 243 249 254 253 250 247 244 250 256 243 221 238 240 237 253 276
132 129 128 128 137 142 137 104 89 81 73 65 54 43 37 40 35 21 7 352 328 310 300 297 293 288 287 269 250 250 254 254 250 248 245 242 246 255 256 226 223 233 236 239
155 151 155 160 148 138 131 120 104 89 76 65 56 49 45 44 40 29 13 356 344 338 335 327 319 315 313 299 272 261 262 260 255 250 248 248 247 248 252 261 252 235 219 222
180 189 155 140 139 136 136 132 114 92 78 67 59 52 46 43 39 29 17 6 8 12 4 353 345 338 332 316 294 278 269 264 257 256 251 250 249 248 248 250 253 255 248 213
158 151 148 148 143 138 135 127 111 93 79 68 59 52 49 49 47 40 31 23 23 22 12 3 355 345 338 326 310 292 279 270 266 264 257 251 248 247 246 247 248 249 248 245
157 162 162 156 147 137 126 115 105 96 85 71 60 54 54 54 51 42 34 31 33 30 20 11 360 350 345 339 327 309 299 286 256 260 261 259 255 252 250 249 249 249 248 242
171 160 156 150 143 136 127 117 106 96 84 75 68 62 56 50 45 38 32 32 36 35 23 10 359 348 352 352 339 324 315 308 295 279 271 266 263 260 258 256 254 253 253 237
144 139 136 135 133 131 126 119 110 99 89 81 75 68 61 52 45 39 38 38 29 22 11 2 350 353 358 360 347 330 327 321 314 304 294 284 273 269 264 261 260 259 256 252
137 135 133 131 131 129 125 121 114 103 91 84 81 74 65 54 43 39 42 47 33 11 359 358 355 2 358 356 346 338 337 332 326 320 315 307 296 288 281 274 269 266 262 257
140 139 138 136 132 129 127 125 119 110 98 86 79 73 65 56 45 38 34 36 25 7 357 358 4 5 358 348 341 348 347 342 336 332 328 322 316 309 301 294 286 278 272 267
146 145 144 141 140 136 132 127 122 117 110 101 91 83 73 58 48 44 44 26 9 360 353 2 5 2 352 345 352 354 352 349 345 341 336 330 325 320 316 313 305 299 291 283
149 148 148 149 146 141 138 136 134 131 125 117 106 88 69 48 28 19 23 13 358 352 347 359 353 349 344 346 354 355 354 353 350 345 341 335 331 326 323 319 315 311 306 300
151 151 150 149 151 153 153 150 149 147 147 145 137 127 72 21 29 17 352 345 341 334 339 348 342 342 337 344 349 350 351 351 350 346 342 338 335 331 328 325 321 317 312 308
156 157 158 162 165 165 161 160 162 166 174 179 183 193 222 275 307 322 322 326 329 322 327 337 337 334 333 341 343 342 341 343 341 337 338 339 337 334 331 329 326 321 318 314
165 168 172 179 176 170 172 176 182 183 186 192 202 214 230 249 268 278 291 304 313 315 317 324 329 328 335 337 334 331 330 331 331 331 332 332 332 333 331 330 328 325 322 319
174 175 178 182 184 189 191 194 200 202 205 213 227 237 251 264 273 283 291 298 306 312 316 319 322 324 326 326 324 324 325 326 326 326 325 325 325 325 326 326 324 324 322 320